NOAA 16 DEB, 41531

Orbit data source: Space-Track

NOAA 16 DEB, 41531 is space debris in SSO originally from a launch on Thu, 21 Sep 2000 UTC launched from the Air Force Western Test Range (AFWTR). Debris objects in space refer to the collection of defunct objects orbiting the Earth. Examples of debris include non-operational satellites, rocket bodies, and fragments generated from explosions, collisions, or faulty payload assembly.

Loading next visibility...
Identifier
41531, 2000-055NF
Orbit
SSO
Country
Flag of USUS
Related business
Manufacturer
Unknown
Mission
Spacecraft
Bus & Motor
Unknown
Mass
Unknown
Launch date (UTC)
2000-09-21 (25 years ago)
Launch vehicle
Unknown
Launch site
Air Force Western Test Range (AFWTR)
Object type
Payload
Rocket body
Debris
Shape & HBR
Unknown shape, 0.1 m
Radar Cross Section
Small (<0.1 m²)

Expand to show TLE details & history
Last TLE update: 3 days ago

TLE from 3 days ago
0 NOAA 16 DEB
1 41531U 00055NF  26035.85650403  .00003561  00000-0  17606-2 0  9998
2 41531  98.6431  63.0254 0029760 235.8323 124.0030 14.17735328504423
Epoch: 2026-02-04T20:33Z
TLE epoch observation values (Epoch: 2026-02-04T20:33:21.948Z)
Latitude
-0.00001°
Longitude
-20.33313°
Altitude
847.983 km
Speed
7.422 km/s
True Right ascension
04h 12m 06s
True Declination
0° 00' 00"
Sunlit
Object was in daylight at epoch
Visualization orbit readout
Latitude
Unknown
Longitude
Unknown
Altitude
Unknown
Speed
Unknown
Apparent Right ascension
Unknown
Apparent Declination
Unknown
Sunlit
N/A
Visualization observer readout
Local Sidereal Time
17:36:28
Azimuth
Unknown
Elevation
Unknown
Doppler factor
Unknown
Orbital elements
Apogee altitude
851.632 km
Perigee altitude
808.728 km
Semi-major axis
7,208.317 km
Eccentricity
0.00298
Inclination
98.6431°
RAAN
63.0254°
Arg. of periapsis
235.8323°
True anomaly
124.28512°
Mean anomaly
124.003°
Eccentric anomaly
124.14412°
Mean motion
3.54644 °/min
Orbital period
101.51 mins
BSTAR
0.0017606
Loading maneuver chart data...
Computing Atmospheric mass density...
Loading historical data...
Loading historical data...
Loading historical data...
Loading historical data...
Loading historical data...
Loading historical data...
Loading historical data...

Documentation

Showing up to 5 results
|